owner,sensor,date,latitude,longitude,vertical_datum,sea_water_temperature,qcFlag 
DISL,ioos:station:DISL:PPTA:1,2019-01-04T17:00:00Z,30.2791,-87.5561,0.0,17.22,11111222 
DISL,ioos:station:DISL:PPTA:1,2019-01-04T17:30:00Z,30.2791,-87.5561,0.0,17.29,11111222 
DISL,ioos:station:DISL:PPTA:1,2019-01-04T19:00:00Z,30.2791,-87.5561,0.0,17.87,11111222 
DISL,ioos:station:DISL:PPTA:1,2019-01-04T20:00:00Z,30.2791,-87.5561,0.0,18.01,11111222 
DISL,ioos:station:DISL:PPTA:1,2019-01-04T21:00:00Z,30.2791,-87.5561,0.0,17.97,11111222 
DISL,ioos:station:DISL:PPTA:1,2019-01-04T22:00:00Z,30.2791,-87.5561,0.0,17.95,11111222 
DISL,ioos:station:DISL:PPTA:1,2019-01-04T23:00:00Z,30.2791,-87.5561,0.0,17.69,11111222 
DISL,ioos:station:DISL:PPTA:1,2019-01-05T00:00:00Z,30.2791,-87.5561,0.0,17.55,11111222 
DISL,ioos:station:DISL:PPTA:1,2019-01-05T01:00:00Z,30.2791,-87.5561,0.0,17.51,11111222 
DISL,ioos:station:DISL:PPTA:1,2019-01-05T02:00:00Z,30.2791,-87.5561,0.0,17.44,11111222 
DISL,ioos:station:DISL:PPTA:1,2019-01-05T03:00:00Z,30.2791,-87.5561,0.0,17.4,11111222 
DISL,ioos:station:DISL:PPTA:1,2019-01-05T04:00:00Z,30.2791,-87.5561,0.0,17.03,11111222 
DISL,ioos:station:DISL:PPTA:1,2019-01-05T05:00:00Z,30.2791,-87.5561,0.0,16.9,11111222 
DISL,ioos:station:DISL:PPTA:1,2019-01-05T06:00:00Z,30.2791,-87.5561,0.0,16.98,11111222 
DISL,ioos:station:DISL:PPTA:1,2019-01-05T07:00:00Z,30.2791,-87.5561,0.0,16.93,11111222 
DISL,ioos:station:DISL:PPTA:1,2019-01-05T08:00:00Z,30.2791,-87.5561,0.0,16.46,11111222 
DISL,ioos:station:DISL:PPTA:1,2019-01-05T09:00:00Z,30.2791,-87.5561,0.0,16.6,11111222 
DISL,ioos:station:DISL:PPTA:1,2019-01-05T10:00:00Z,30.2791,-87.5561,0.0,16.61,11111222 
DISL,ioos:station:DISL:PPTA:1,2019-01-05T11:00:00Z,30.2791,-87.5561,0.0,16.57,11111222 
DISL,ioos:station:DISL:PPTA:1,2019-01-05T12:00:00Z,30.2791,-87.5561,0.0,16.51,11111222 
DISL,ioos:station:DISL:PPTA:1,2019-01-05T13:00:00Z,30.2791,-87.5561,0.0,16.44,11111222 
DISL,ioos:station:DISL:PPTA:1,2019-01-05T14:00:00Z,30.2791,-87.5561,0.0,16.4,11111222 
DISL,ioos:station:DISL:PPTA:1,2019-01-05T15:00:00Z,30.2791,-87.5561,0.0,16.42,11111222 
DISL,ioos:station:DISL:PPTA:1,2019-01-05T16:00:00Z,30.2791,-87.5561,0.0,16.57,11111222 
DISL,ioos:station:DISL:PPTA:1,2019-01-05T17:00:00Z,30.2791,-87.5561,0.0,16.7,11111222 
DISL,ioos:station:DISL:PPTA:1,2019-01-05T18:00:00Z,30.2791,-87.5561,0.0,16.36,11111222 
DISL,ioos:station:DISL:PPTA:1,2019-01-05T19:00:00Z,30.2791,-87.5561,0.0,16.61,11111222 
DISL,ioos:station:DISL:PPTA:1,2019-01-05T20:00:00Z,30.2791,-87.5561,0.0,16.46,11111222 
DISL,ioos:station:DISL:PPTA:1,2019-01-05T21:00:00Z,30.2791,-87.5561,0.0,17.32,11111222 
DISL,ioos:station:DISL:PPTA:1,2019-01-05T22:00:00Z,30.2791,-87.5561,0.0,17.35,11111222 
DISL,ioos:station:DISL:PPTA:1,2019-01-05T23:00:00Z,30.2791,-87.5561,0.0,17.37,11111222 
DISL,ioos:station:DISL:PPTA:1,2019-01-06T00:00:00Z,30.2791,-87.5561,0.0,17.37,11111222 
DISL,ioos:station:DISL:PPTA:1,2019-01-06T01:00:00Z,30.2791,-87.5561,0.0,17.39,11111222 
DISL,ioos:station:DISL:PPTA:1,2019-01-06T02:00:00Z,30.2791,-87.5561,0.0,17.35,11111222 
DISL,ioos:station:DISL:PPTA:1,2019-01-06T17:00:00Z,30.2791,-87.5561,0.0,16.43,11111222 
DISL,ioos:station:DISL:PPTA:1,2019-01-06T18:00:00Z,30.2791,-87.5561,0.0,16.68,11111222 
DISL,ioos:station:DISL:PPTA:1,2019-01-06T19:00:00Z,30.2791,-87.5561,0.0,16.75,11111222 
DISL,ioos:station:DISL:PPTA:1,2019-01-06T20:00:00Z,30.2791,-87.5561,0.0,16.89,11111222 
DISL,ioos:station:DISL:PPTA:1,2019-01-06T21:00:00Z,30.2791,-87.5561,0.0,17.38,11111222 
DISL,ioos:station:DISL:PPTA:1,2019-01-06T22:00:00Z,30.2791,-87.5561,0.0,17.36,11111222 
DISL,ioos:station:DISL:PPTA:1,2019-01-06T23:00:00Z,30.2791,-87.5561,0.0,17.3,11111222 
DISL,ioos:station:DISL:PPTA:1,2019-01-07T00:00:00Z,30.2791,-87.5561,0.0,17.28,11111222 
DISL,ioos:station:DISL:PPTA:1,2019-01-07T01:00:00Z,30.2791,-87.5561,0.0,17.39,11111222 
DISL,ioos:station:DISL:PPTA:1,2019-01-07T02:00:00Z,30.2791,-87.5561,0.0,17.41,11111222 
DISL,ioos:station:DISL:PPTA:1,2019-01-07T03:00:00Z,30.2791,-87.5561,0.0,17.48,11111222 
DISL,ioos:station:DISL:PPTA:1,2019-01-07T04:00:00Z,30.2791,-87.5561,0.0,17.45,11111222 
DISL,ioos:station:DISL:PPTA:1,2019-01-07T05:00:00Z,30.2791,-87.5561,0.0,17.49,11111222 
DISL,ioos:station:DISL:PPTA:1,2019-01-07T06:00:00Z,30.2791,-87.5561,0.0,17.47,11111222 
DISL,ioos:station:DISL:PPTA:1,2019-01-07T07:00:00Z,30.2791,-87.5561,0.0,17.56,11111222 
DISL,ioos:station:DISL:PPTA:1,2019-01-07T16:00:00Z,30.2791,-87.5561,0.0,16.6,11111222 
DISL,ioos:station:DISL:PPTA:1,2019-01-07T17:00:00Z,30.2791,-87.5561,0.0,16.74,11111222 
DISL,ioos:station:DISL:PPTA:1,2019-01-07T18:00:00Z,30.2791,-87.5561,0.0,16.93,11111222 
DISL,ioos:station:DISL:PPTA:1,2019-01-07T19:00:00Z,30.2791,-87.5561,0.0,17.19,11111222 
DISL,ioos:station:DISL:PPTA:1,2019-01-07T20:00:00Z,30.2791,-87.5561,0.0,17.14,11111222 
DISL,ioos:station:DISL:PPTA:1,2019-01-07T21:00:00Z,30.2791,-87.5561,0.0,17.76,11111222 
DISL,ioos:station:DISL:PPTA:1,2019-01-07T22:00:00Z,30.2791,-87.5561,0.0,17.52,11111222 
DISL,ioos:station:DISL:PPTA:1,2019-01-07T23:00:00Z,30.2791,-87.5561,0.0,17.57,11111222 
DISL,ioos:station:DISL:PPTA:1,2019-01-08T00:00:00Z,30.2791,-87.5561,0.0,17.73,11111222 
DISL,ioos:station:DISL:PPTA:1,2019-01-08T01:00:00Z,30.2791,-87.5561,0.0,17.76,11111222 
DISL,ioos:station:DISL:PPTA:1,2019-01-08T02:00:00Z,30.2791,-87.5561,0.0,17.79,11111222 
DISL,ioos:station:DISL:PPTA:1,2019-01-08T03:00:00Z,30.2791,-87.5561,0.0,17.76,11111222 
DISL,ioos:station:DISL:PPTA:1,2019-01-08T04:00:00Z,30.2791,-87.5561,0.0,17.7,11111222 
DISL,ioos:station:DISL:PPTA:1,2019-01-08T05:00:00Z,30.2791,-87.5561,0.0,17.63,11111222 
DISL,ioos:station:DISL:PPTA:1,2019-01-08T06:00:00Z,30.2791,-87.5561,0.0,17.63,11111222 
DISL,ioos:station:DISL:PPTA:1,2019-01-08T07:00:00Z,30.2791,-87.5561,0.0,17.63,11111222 
DISL,ioos:station:DISL:PPTA:1,2019-01-08T08:00:00Z,30.2791,-87.5561,0.0,17.6,11111222 
DISL,ioos:station:DISL:PPTA:1,2019-01-08T09:00:00Z,30.2791,-87.5561,0.0,17.5,11111222 
DISL,ioos:station:DISL:PPTA:1,2019-01-08T10:00:00Z,30.2791,-87.5561,0.0,16.97,11111222 
DISL,ioos:station:DISL:PPTA:1,2019-01-08T11:00:00Z,30.2791,-87.5561,0.0,17.17,11111222 
DISL,ioos:station:DISL:PPTA:1,2019-01-08T12:00:00Z,30.2791,-87.5561,0.0,17.27,11111222 
DISL,ioos:station:DISL:PPTA:1,2019-01-08T13:00:00Z,30.2791,-87.5561,0.0,17.04,11111222 
DISL,ioos:station:DISL:PPTA:1,2019-01-08T14:00:00Z,30.2791,-87.5561,0.0,17.02,11111222 
DISL,ioos:station:DISL:PPTA:1,2019-01-08T15:00:00Z,30.2791,-87.5561,0.0,17.01,11111222 
DISL,ioos:station:DISL:PPTA:1,2019-01-08T16:00:00Z,30.2791,-87.5561,0.0,17.16,11111222 
DISL,ioos:station:DISL:PPTA:1,2019-01-08T17:00:00Z,30.2791,-87.5561,0.0,17.23,11111222 
DISL,ioos:station:DISL:PPTA:1,2019-01-08T18:00:00Z,30.2791,-87.5561,0.0,17.27,11111222 
DISL,ioos:station:DISL:PPTA:1,2019-01-08T19:00:00Z,30.2791,-87.5561,0.0,17.57,11111222 
DISL,ioos:station:DISL:PPTA:1,2019-01-08T20:00:00Z,30.2791,-87.5561,0.0,18.04,11111222 
DISL,ioos:station:DISL:PPTA:1,2019-01-08T21:00:00Z,30.2791,-87.5561,0.0,17.77,11111222 
DISL,ioos:station:DISL:PPTA:1,2019-01-08T22:00:00Z,30.2791,-87.5561,0.0,17.89,11111222 
DISL,ioos:station:DISL:PPTA:1,2019-01-08T23:00:00Z,30.2791,-87.5561,0.0,17.93,11111222 
DISL,ioos:station:DISL:PPTA:1,2019-01-09T00:00:00Z,30.2791,-87.5561,0.0,17.99,11111222 
DISL,ioos:station:DISL:PPTA:1,2019-01-09T01:00:00Z,30.2791,-87.5561,0.0,18.16,11111222 
DISL,ioos:station:DISL:PPTA:1,2019-01-09T02:00:00Z,30.2791,-87.5561,0.0,18.2,11111222 
DISL,ioos:station:DISL:PPTA:1,2019-01-09T03:00:00Z,30.2791,-87.5561,0.0,18.2,11111222 
DISL,ioos:station:DISL:PPTA:1,2019-01-09T04:00:00Z,30.2791,-87.5561,0.0,18.18,11111222 
DISL,ioos:station:DISL:PPTA:1,2019-01-09T05:00:00Z,30.2791,-87.5561,0.0,18.18,11111222 
DISL,ioos:station:DISL:PPTA:1,2019-01-09T06:00:00Z,30.2791,-87.5561,0.0,18.17,11111222 
DISL,ioos:station:DISL:PPTA:1,2019-01-09T07:00:00Z,30.2791,-87.5561,0.0,18.14,11111222 
DISL,ioos:station:DISL:PPTA:1,2019-01-09T08:00:00Z,30.2791,-87.5561,0.0,18.0,11111222 
DISL,ioos:station:DISL:PPTA:1,2019-01-09T09:00:00Z,30.2791,-87.5561,0.0,17.85,11111222 
DISL,ioos:station:DISL:PPTA:1,2019-01-09T10:00:00Z,30.2791,-87.5561,0.0,17.78,11111222 
DISL,ioos:station:DISL:PPTA:1,2019-01-09T11:00:00Z,30.2791,-87.5561,0.0,17.39,11111222 
DISL,ioos:station:DISL:PPTA:1,2019-01-09T12:00:00Z,30.2791,-87.5561,0.0,17.29,11111222 
DISL,ioos:station:DISL:PPTA:1,2019-01-09T13:00:00Z,30.2791,-87.5561,0.0,17.08,11111222 
DISL,ioos:station:DISL:PPTA:1,2019-01-09T14:00:00Z,30.2791,-87.5561,0.0,16.86,11111222 
DISL,ioos:station:DISL:PPTA:1,2019-01-09T15:00:00Z,30.2791,-87.5561,0.0,16.86,11111222 
DISL,ioos:station:DISL:PPTA:1,2019-01-09T18:00:00Z,30.2791,-87.5561,0.0,16.71,11111222 
DISL,ioos:station:DISL:PPTA:1,2019-01-09T19:00:00Z,30.2791,-87.5561,0.0,16.7,11111222 
DISL,ioos:station:DISL:PPTA:1,2019-01-09T20:00:00Z,30.2791,-87.5561,0.0,16.74,11111222 
DISL,ioos:station:DISL:PPTA:1,2019-01-09T21:00:00Z,30.2791,-87.5561,0.0,16.58,11111222 
DISL,ioos:station:DISL:PPTA:1,2019-01-09T22:00:00Z,30.2791,-87.5561,0.0,16.69,11111222 
DISL,ioos:station:DISL:PPTA:1,2019-01-09T23:00:00Z,30.2791,-87.5561,0.0,18.23,11111222 
DISL,ioos:station:DISL:PPTA:1,2019-01-10T00:00:00Z,30.2791,-87.5561,0.0,18.39,11111222 
DISL,ioos:station:DISL:PPTA:1,2019-01-10T01:00:00Z,30.2791,-87.5561,0.0,18.66,11111222 
DISL,ioos:station:DISL:PPTA:1,2019-01-10T02:00:00Z,30.2791,-87.5561,0.0,18.5,11111222 
DISL,ioos:station:DISL:PPTA:1,2019-01-10T03:00:00Z,30.2791,-87.5561,0.0,18.43,11111222 
DISL,ioos:station:DISL:PPTA:1,2019-01-10T04:00:00Z,30.2791,-87.5561,0.0,18.33,11111222 
DISL,ioos:station:DISL:PPTA:1,2019-01-10T05:00:00Z,30.2791,-87.5561,0.0,18.23,11111222 
DISL,ioos:station:DISL:PPTA:1,2019-01-10T06:00:00Z,30.2791,-87.5561,0.0,18.1,11111222 
DISL,ioos:station:DISL:PPTA:1,2019-01-10T07:00:00Z,30.2791,-87.5561,0.0,18.04,11111222 
DISL,ioos:station:DISL:PPTA:1,2019-01-10T08:00:00Z,30.2791,-87.5561,0.0,15.64,11111222 
DISL,ioos:station:DISL:PPTA:1,2019-01-10T09:00:00Z,30.2791,-87.5561,0.0,16.95,11111222 
DISL,ioos:station:DISL:PPTA:1,2019-01-10T10:00:00Z,30.2791,-87.5561,0.0,16.93,11111222 
DISL,ioos:station:DISL:PPTA:1,2019-01-10T11:00:00Z,30.2791,-87.5561,0.0,15.45,11111222 
DISL,ioos:station:DISL:PPTA:1,2019-01-10T12:00:00Z,30.2791,-87.5561,0.0,15.22,11111222 
DISL,ioos:station:DISL:PPTA:1,2019-01-10T13:00:00Z,30.2791,-87.5561,0.0,14.88,11111222 
DISL,ioos:station:DISL:PPTA:1,2019-01-10T14:00:00Z,30.2791,-87.5561,0.0,14.61,11111222 
DISL,ioos:station:DISL:PPTA:1,2019-01-10T15:00:00Z,30.2791,-87.5561,0.0,14.47,11111222 
DISL,ioos:station:DISL:PPTA:1,2019-01-10T16:00:00Z,30.2791,-87.5561,0.0,15.4,11111222 
DISL,ioos:station:DISL:PPTA:1,2019-01-10T17:00:00Z,30.2791,-87.5561,0.0,14.7,11111222 
DISL,ioos:station:DISL:PPTA:1,2019-01-10T18:00:00Z,30.2791,-87.5561,0.0,15.12,11111222 
DISL,ioos:station:DISL:PPTA:1,2019-01-10T19:00:00Z,30.2791,-87.5561,0.0,14.93,11111222 
DISL,ioos:station:DISL:PPTA:1,2019-01-10T20:00:00Z,30.2791,-87.5561,0.0,17.31,11111222 
DISL,ioos:station:DISL:PPTA:1,2019-01-10T21:00:00Z,30.2791,-87.5561,0.0,17.36,11111222 
DISL,ioos:station:DISL:PPTA:1,2019-01-10T22:00:00Z,30.2791,-87.5561,0.0,17.49,11111222 
DISL,ioos:station:DISL:PPTA:1,2019-01-10T23:00:00Z,30.2791,-87.5561,0.0,17.68,11111222 
DISL,ioos:station:DISL:PPTA:1,2019-01-11T00:00:00Z,30.2791,-87.5561,0.0,17.74,11111222 
DISL,ioos:station:DISL:PPTA:1,2019-01-11T01:00:00Z,30.2791,-87.5561,0.0,17.73,11111222 
DISL,ioos:station:DISL:PPTA:1,2019-01-11T02:00:00Z,30.2791,-87.5561,0.0,17.74,11111222 
DISL,ioos:station:DISL:PPTA:1,2019-01-11T03:00:00Z,30.2791,-87.5561,0.0,17.71,11111222 
DISL,ioos:station:DISL:PPTA:1,2019-01-11T04:00:00Z,30.2791,-87.5561,0.0,17.7,11111222 
DISL,ioos:station:DISL:PPTA:1,2019-01-11T05:00:00Z,30.2791,-87.5561,0.0,17.7,11111222 
DISL,ioos:station:DISL:PPTA:1,2019-01-11T06:00:00Z,30.2791,-87.5561,0.0,17.69,11111222 
DISL,ioos:station:DISL:PPTA:1,2019-01-11T07:00:00Z,30.2791,-87.5561,0.0,17.68,11111222 
DISL,ioos:station:DISL:PPTA:1,2019-01-11T08:00:00Z,30.2791,-87.5561,0.0,17.66,11111222 
DISL,ioos:station:DISL:PPTA:1,2019-01-11T09:00:00Z,30.2791,-87.5561,0.0,17.66,11111222 
DISL,ioos:station:DISL:PPTA:1,2019-01-11T10:00:00Z,30.2791,-87.5561,0.0,16.23,11111222 
DISL,ioos:station:DISL:PPTA:1,2019-01-11T11:00:00Z,30.2791,-87.5561,0.0,16.01,11111222 
DISL,ioos:station:DISL:PPTA:1,2019-01-11T12:00:00Z,30.2791,-87.5561,0.0,14.17,11111222 
DISL,ioos:station:DISL:PPTA:1,2019-01-11T13:00:00Z,30.2791,-87.5561,0.0,13.67,11111222 
DISL,ioos:station:DISL:PPTA:1,2019-01-11T14:00:00Z,30.2791,-87.5561,0.0,13.24,11111222 
DISL,ioos:station:DISL:PPTA:1,2019-01-11T15:00:00Z,30.2791,-87.5561,0.0,15.24,11111222 
DISL,ioos:station:DISL:PPTA:1,2019-01-11T16:00:00Z,30.2791,-87.5561,0.0,13.65,11111222 
DISL,ioos:station:DISL:PPTA:1,2019-01-11T17:00:00Z,30.2791,-87.5561,0.0,13.89,11111222 
DISL,ioos:station:DISL:PPTA:1,2019-01-11T18:00:00Z,30.2791,-87.5561,0.0,13.96,11111222 
DISL,ioos:station:DISL:PPTA:1,2019-01-11T19:00:00Z,30.2791,-87.5561,0.0,14.33,11111222 
DISL,ioos:station:DISL:PPTA:1,2019-01-11T20:00:00Z,30.2791,-87.5561,0.0,14.53,11111222 
DISL,ioos:station:DISL:PPTA:1,2019-01-11T21:00:00Z,30.2791,-87.5561,0.0,16.06,11111222 
DISL,ioos:station:DISL:PPTA:1,2019-01-11T22:00:00Z,30.2791,-87.5561,0.0,17.64,11111222 
DISL,ioos:station:DISL:PPTA:1,2019-01-11T23:00:00Z,30.2791,-87.5561,0.0,17.48,11111222 
DISL,ioos:station:DISL:PPTA:1,2019-01-12T00:00:00Z,30.2791,-87.5561,0.0,17.48,11111222 
DISL,ioos:station:DISL:PPTA:1,2019-01-12T01:00:00Z,30.2791,-87.5561,0.0,17.38,11111222 
DISL,ioos:station:DISL:PPTA:1,2019-01-12T02:00:00Z,30.2791,-87.5561,0.0,17.36,11111222 
DISL,ioos:station:DISL:PPTA:1,2019-01-12T03:00:00Z,30.2791,-87.5561,0.0,17.16,11111222 
DISL,ioos:station:DISL:PPTA:1,2019-01-12T04:00:00Z,30.2791,-87.5561,0.0,16.41,11111222 
DISL,ioos:station:DISL:PPTA:1,2019-01-12T05:00:00Z,30.2791,-87.5561,0.0,16.09,11111222 
DISL,ioos:station:DISL:PPTA:1,2019-01-12T06:00:00Z,30.2791,-87.5561,0.0,15.86,11111222 
DISL,ioos:station:DISL:PPTA:1,2019-01-12T07:00:00Z,30.2791,-87.5561,0.0,15.85,11111222 
DISL,ioos:station:DISL:PPTA:1,2019-01-12T08:00:00Z,30.2791,-87.5561,0.0,15.8,11111222 
DISL,ioos:station:DISL:PPTA:1,2019-01-12T09:00:00Z,30.2791,-87.5561,0.0,15.75,11111222 
DISL,ioos:station:DISL:PPTA:1,2019-01-12T10:00:00Z,30.2791,-87.5561,0.0,13.85,11111222 
DISL,ioos:station:DISL:PPTA:1,2019-01-12T11:00:00Z,30.2791,-87.5561,0.0,13.75,11111222 
DISL,ioos:station:DISL:PPTA:1,2019-01-12T12:00:00Z,30.2791,-87.5561,0.0,15.94,11111222 
DISL,ioos:station:DISL:PPTA:1,2019-01-12T13:00:00Z,30.2791,-87.5561,0.0,14.52,11111222 
DISL,ioos:station:DISL:PPTA:1,2019-01-12T14:00:00Z,30.2791,-87.5561,0.0,14.28,11111222 
DISL,ioos:station:DISL:PPTA:1,2019-01-12T15:00:00Z,30.2791,-87.5561,0.0,13.66,11111222 
DISL,ioos:station:DISL:PPTA:1,2019-01-12T16:00:00Z,30.2791,-87.5561,0.0,13.81,11111222 
DISL,ioos:station:DISL:PPTA:1,2019-01-12T17:00:00Z,30.2791,-87.5561,0.0,14.01,11111222 
DISL,ioos:station:DISL:PPTA:1,2019-01-12T18:00:00Z,30.2791,-87.5561,0.0,14.12,11111222 
DISL,ioos:station:DISL:PPTA:1,2019-01-12T19:00:00Z,30.2791,-87.5561,0.0,15.28,11111222 
DISL,ioos:station:DISL:PPTA:1,2019-01-12T20:00:00Z,30.2791,-87.5561,0.0,16.31,11111222 
DISL,ioos:station:DISL:PPTA:1,2019-01-12T21:00:00Z,30.2791,-87.5561,0.0,15.9,11111222 
DISL,ioos:station:DISL:PPTA:1,2019-01-12T22:00:00Z,30.2791,-87.5561,0.0,15.97,11111222 
DISL,ioos:station:DISL:PPTA:1,2019-01-12T23:00:00Z,30.2791,-87.5561,0.0,16.06,11111222 
DISL,ioos:station:DISL:PPTA:1,2019-01-13T00:00:00Z,30.2791,-87.5561,0.0,16.12,11111222 
DISL,ioos:station:DISL:PPTA:1,2019-01-13T01:00:00Z,30.2791,-87.5561,0.0,16.1,11111222 
DISL,ioos:station:DISL:PPTA:1,2019-01-13T02:00:00Z,30.2791,-87.5561,0.0,16.07,11111222 
DISL,ioos:station:DISL:PPTA:1,2019-01-13T03:00:00Z,30.2791,-87.5561,0.0,16.09,11111222 
DISL,ioos:station:DISL:PPTA:1,2019-01-13T04:00:00Z,30.2791,-87.5561,0.0,16.04,11111222 
DISL,ioos:station:DISL:PPTA:1,2019-01-13T05:00:00Z,30.2791,-87.5561,0.0,16.02,11111222 
DISL,ioos:station:DISL:PPTA:1,2019-01-13T06:00:00Z,30.2791,-87.5561,0.0,16.03,11111222 
DISL,ioos:station:DISL:PPTA:1,2019-01-13T07:00:00Z,30.2791,-87.5561,0.0,16.02,11111222 
DISL,ioos:station:DISL:PPTA:1,2019-01-13T08:00:00Z,30.2791,-87.5561,0.0,15.84,11111222 
DISL,ioos:station:DISL:PPTA:1,2019-01-13T09:00:00Z,30.2791,-87.5561,0.0,15.87,11111222 
DISL,ioos:station:DISL:PPTA:1,2019-01-13T10:00:00Z,30.2791,-87.5561,0.0,15.59,11111222 
DISL,ioos:station:DISL:PPTA:1,2019-01-13T11:00:00Z,30.2791,-87.5561,0.0,15.15,11111222 
DISL,ioos:station:DISL:PPTA:1,2019-01-13T12:00:00Z,30.2791,-87.5561,0.0,15.04,11111222 
DISL,ioos:station:DISL:PPTA:1,2019-01-13T13:00:00Z,30.2791,-87.5561,0.0,15.52,11111222 
DISL,ioos:station:DISL:PPTA:1,2019-01-13T14:00:00Z,30.2791,-87.5561,0.0,15.39,11111222 
DISL,ioos:station:DISL:PPTA:1,2019-01-13T15:00:00Z,30.2791,-87.5561,0.0,15.89,11111222 
DISL,ioos:station:DISL:PPTA:1,2019-01-13T16:00:00Z,30.2791,-87.5561,0.0,15.25,11111222 
DISL,ioos:station:DISL:PPTA:1,2019-01-13T17:00:00Z,30.2791,-87.5561,0.0,15.46,11111222 
DISL,ioos:station:DISL:PPTA:1,2019-01-13T18:00:00Z,30.2791,-87.5561,0.0,15.07,11111222 
DISL,ioos:station:DISL:PPTA:1,2019-01-13T19:00:00Z,30.2791,-87.5561,0.0,15.4,11111222 
DISL,ioos:station:DISL:PPTA:1,2019-01-13T20:00:00Z,30.2791,-87.5561,0.0,15.29,11111222 
DISL,ioos:station:DISL:PPTA:1,2019-01-13T21:00:00Z,30.2791,-87.5561,0.0,15.43,11111222 
DISL,ioos:station:DISL:PPTA:1,2019-01-13T22:00:00Z,30.2791,-87.5561,0.0,15.42,11111222 
DISL,ioos:station:DISL:PPTA:1,2019-01-13T23:00:00Z,30.2791,-87.5561,0.0,16.07,11111222 
DISL,ioos:station:DISL:PPTA:1,2019-01-14T00:00:00Z,30.2791,-87.5561,0.0,15.45,11111222 
DISL,ioos:station:DISL:PPTA:1,2019-01-14T01:00:00Z,30.2791,-87.5561,0.0,15.84,11111222 
DISL,ioos:station:DISL:PPTA:1,2019-01-14T02:00:00Z,30.2791,-87.5561,0.0,14.6,11111222 
DISL,ioos:station:DISL:PPTA:1,2019-01-14T03:00:00Z,30.2791,-87.5561,0.0,15.06,11111222 
DISL,ioos:station:DISL:PPTA:1,2019-01-14T04:00:00Z,30.2791,-87.5561,0.0,15.67,11111222 
DISL,ioos:station:DISL:PPTA:1,2019-01-14T05:00:00Z,30.2791,-87.5561,0.0,14.79,11111222 
DISL,ioos:station:DISL:PPTA:1,2019-01-14T06:00:00Z,30.2791,-87.5561,0.0,14.07,11111222 
DISL,ioos:station:DISL:PPTA:1,2019-01-14T07:00:00Z,30.2791,-87.5561,0.0,15.26,11111222 
DISL,ioos:station:DISL:PPTA:1,2019-01-14T08:00:00Z,30.2791,-87.5561,0.0,15.07,11111222 
DISL,ioos:station:DISL:PPTA:1,2019-01-14T09:00:00Z,30.2791,-87.5561,0.0,14.3,11111222 
DISL,ioos:station:DISL:PPTA:1,2019-01-14T10:00:00Z,30.2791,-87.5561,0.0,14.41,11111222 
DISL,ioos:station:DISL:PPTA:1,2019-01-14T11:00:00Z,30.2791,-87.5561,0.0,14.68,11111222 
DISL,ioos:station:DISL:PPTA:1,2019-01-14T12:00:00Z,30.2791,-87.5561,0.0,14.6,11111222 
DISL,ioos:station:DISL:PPTA:1,2019-01-14T13:00:00Z,30.2791,-87.5561,0.0,14.48,11111222 
DISL,ioos:station:DISL:PPTA:1,2019-01-14T14:00:00Z,30.2791,-87.5561,0.0,14.31,11111222 
DISL,ioos:station:DISL:PPTA:1,2019-01-14T15:00:00Z,30.2791,-87.5561,0.0,14.36,11111222 
DISL,ioos:station:DISL:PPTA:1,2019-01-14T16:00:00Z,30.2791,-87.5561,0.0,13.57,11111222 
DISL,ioos:station:DISL:PPTA:1,2019-01-14T17:00:00Z,30.2791,-87.5561,0.0,13.43,11111222 
DISL,ioos:station:DISL:PPTA:1,2019-01-14T18:00:00Z,30.2791,-87.5561,0.0,13.29,11111222 
DISL,ioos:station:DISL:PPTA:1,2019-01-14T19:00:00Z,30.2791,-87.5561,0.0,14.04,11111222 
DISL,ioos:station:DISL:PPTA:1,2019-01-14T20:00:00Z,30.2791,-87.5561,0.0,14.88,11111222 
DISL,ioos:station:DISL:PPTA:1,2019-01-14T21:00:00Z,30.2791,-87.5561,0.0,16.99,11111222 
DISL,ioos:station:DISL:PPTA:1,2019-01-14T22:00:00Z,30.2791,-87.5561,0.0,16.84,11111222 
DISL,ioos:station:DISL:PPTA:1,2019-01-14T23:00:00Z,30.2791,-87.5561,0.0,14.65,11111222 
DISL,ioos:station:DISL:PPTA:1,2019-01-15T00:00:00Z,30.2791,-87.5561,0.0,14.76,11111222 
DISL,ioos:station:DISL:PPTA:1,2019-01-15T01:00:00Z,30.2791,-87.5561,0.0,13.93,11111222 
DISL,ioos:station:DISL:PPTA:1,2019-01-15T02:00:00Z,30.2791,-87.5561,0.0,13.84,11111222 
DISL,ioos:station:DISL:PPTA:1,2019-01-15T03:00:00Z,30.2791,-87.5561,0.0,13.65,11111222 
DISL,ioos:station:DISL:PPTA:1,2019-01-15T04:00:00Z,30.2791,-87.5561,0.0,13.35,11111222 
DISL,ioos:station:DISL:PPTA:1,2019-01-15T05:00:00Z,30.2791,-87.5561,0.0,12.87,11111222 
DISL,ioos:station:DISL:PPTA:1,2019-01-15T06:00:00Z,30.2791,-87.5561,0.0,12.87,11111222 
DISL,ioos:station:DISL:PPTA:1,2019-01-15T07:00:00Z,30.2791,-87.5561,0.0,13.28,11111222 
DISL,ioos:station:DISL:PPTA:1,2019-01-15T08:00:00Z,30.2791,-87.5561,0.0,12.84,11111222 
DISL,ioos:station:DISL:PPTA:1,2019-01-15T09:00:00Z,30.2791,-87.5561,0.0,12.71,11111222 
DISL,ioos:station:DISL:PPTA:1,2019-01-15T10:00:00Z,30.2791,-87.5561,0.0,13.07,11111222 
DISL,ioos:station:DISL:PPTA:1,2019-01-15T11:00:00Z,30.2791,-87.5561,0.0,12.79,11111222 
DISL,ioos:station:DISL:PPTA:1,2019-01-15T12:00:00Z,30.2791,-87.5561,0.0,12.6,11111222 
DISL,ioos:station:DISL:PPTA:1,2019-01-15T13:00:00Z,30.2791,-87.5561,0.0,12.18,11111222 
DISL,ioos:station:DISL:PPTA:1,2019-01-15T14:00:00Z,30.2791,-87.5561,0.0,12.24,11111222 
DISL,ioos:station:DISL:PPTA:1,2019-01-15T15:00:00Z,30.2791,-87.5561,0.0,12.03,11111222 
DISL,ioos:station:DISL:PPTA:1,2019-01-15T16:00:00Z,30.2791,-87.5561,0.0,14.54,11111222 
DISL,ioos:station:DISL:PPTA:1,2019-01-15T17:00:00Z,30.2791,-87.5561,0.0,16.11,11111222 
DISL,ioos:station:DISL:PPTA:1,2019-01-15T18:00:00Z,30.2791,-87.5561,0.0,16.08,11111222 
DISL,ioos:station:DISL:PPTA:1,2019-01-15T19:00:00Z,30.2791,-87.5561,0.0,15.99,11111222 
DISL,ioos:station:DISL:PPTA:1,2019-01-15T20:00:00Z,30.2791,-87.5561,0.0,15.9,11111222 
DISL,ioos:station:DISL:PPTA:1,2019-01-15T21:00:00Z,30.2791,-87.5561,0.0,15.93,11111222 
DISL,ioos:station:DISL:PPTA:1,2019-01-15T22:00:00Z,30.2791,-87.5561,0.0,16.01,11111222 
DISL,ioos:station:DISL:PPTA:1,2019-01-15T23:00:00Z,30.2791,-87.5561,0.0,15.97,11111222 
DISL,ioos:station:DISL:PPTA:1,2019-01-16T00:00:00Z,30.2791,-87.5561,0.0,15.94,11111222 
DISL,ioos:station:DISL:PPTA:1,2019-01-16T01:00:00Z,30.2791,-87.5561,0.0,15.91,11111222 
DISL,ioos:station:DISL:PPTA:1,2019-01-16T02:00:00Z,30.2791,-87.5561,0.0,15.92,11111222 
DISL,ioos:station:DISL:PPTA:1,2019-01-16T03:00:00Z,30.2791,-87.5561,0.0,15.51,11111222 
DISL,ioos:station:DISL:PPTA:1,2019-01-16T04:00:00Z,30.2791,-87.5561,0.0,14.57,11111222 
DISL,ioos:station:DISL:PPTA:1,2019-01-16T05:00:00Z,30.2791,-87.5561,0.0,12.92,11111222 
DISL,ioos:station:DISL:PPTA:1,2019-01-16T06:00:00Z,30.2791,-87.5561,0.0,15.74,11111222 
DISL,ioos:station:DISL:PPTA:1,2019-01-16T07:00:00Z,30.2791,-87.5561,0.0,13.14,11111222 
DISL,ioos:station:DISL:PPTA:1,2019-01-16T08:00:00Z,30.2791,-87.5561,0.0,13.06,11111222 
DISL,ioos:station:DISL:PPTA:1,2019-01-16T09:00:00Z,30.2791,-87.5561,0.0,13.49,11111222 
DISL,ioos:station:DISL:PPTA:1,2019-01-16T10:00:00Z,30.2791,-87.5561,0.0,13.18,11111222 
DISL,ioos:station:DISL:PPTA:1,2019-01-16T11:00:00Z,30.2791,-87.5561,0.0,12.63,11111222 
DISL,ioos:station:DISL:PPTA:1,2019-01-16T12:00:00Z,30.2791,-87.5561,0.0,13.16,11111222 
DISL,ioos:station:DISL:PPTA:1,2019-01-16T13:00:00Z,30.2791,-87.5561,0.0,12.45,11111222 
DISL,ioos:station:DISL:PPTA:1,2019-01-16T14:00:00Z,30.2791,-87.5561,0.0,11.78,11111222 
DISL,ioos:station:DISL:PPTA:1,2019-01-16T21:00:00Z,30.2791,-87.5561,0.0,16.38,11111222 
DISL,ioos:station:DISL:PPTA:1,2019-01-16T22:00:00Z,30.2791,-87.5561,0.0,16.18,11111222 
DISL,ioos:station:DISL:PPTA:1,2019-01-16T23:00:00Z,30.2791,-87.5561,0.0,16.22,11111222 
DISL,ioos:station:DISL:PPTA:1,2019-01-17T00:00:00Z,30.2791,-87.5561,0.0,16.01,11111222 
DISL,ioos:station:DISL:PPTA:1,2019-01-17T01:00:00Z,30.2791,-87.5561,0.0,15.98,11111222 
DISL,ioos:station:DISL:PPTA:1,2019-01-17T02:00:00Z,30.2791,-87.5561,0.0,16.11,11111222 
DISL,ioos:station:DISL:PPTA:1,2019-01-17T03:00:00Z,30.2791,-87.5561,0.0,15.66,11111222 
DISL,ioos:station:DISL:PPTA:1,2019-01-17T04:00:00Z,30.2791,-87.5561,0.0,14.98,11111222 
DISL,ioos:station:DISL:PPTA:1,2019-01-17T05:00:00Z,30.2791,-87.5561,0.0,13.87,11111222 
DISL,ioos:station:DISL:PPTA:1,2019-01-17T06:00:00Z,30.2791,-87.5561,0.0,14.94,11111222 